EINXB EINC-EIWT

Flight info

Callsign EINXB
Flight time N/A
Altitude 4000
Route VP032 DCT VP039 DCT VP041
Aircraft DR40/L-SFG/C

Departure

Time 2026-04-12 16:10
Airport Newcastle Aerodrome (EINC)

Arrival

Time N/A
Airport EIWT
Time Latitude Longitude Altitude Speed Heading
2026-04-12 16:07 53.07299 -6.03779 4 ft 0 kts 85°
2026-04-12 16:07 53.07303 -6.03748 3 ft 9 kts 75°
2026-04-12 16:07 53.07251 -6.03641 3 ft 16 kts 176°
2026-04-12 16:07 53.07128 -6.03631 3 ft 0 kts 138°
2026-04-12 16:08 53.07132 -6.03620 3 ft 0 kts 356°
2026-04-12 16:08 53.07146 -6.03623 4 ft 0 kts 354°
2026-04-12 16:08 53.07224 -6.03636 4 ft 36 kts 356°
2026-04-12 16:09 53.07621 -6.03678 84 ft 66 kts 345°
2026-04-12 16:09 53.08078 -6.03852 245 ft 73 kts 336°
2026-04-12 16:09 53.08613 -6.04096 375 ft 87 kts 340°
2026-04-12 16:09 53.09203 -6.04393 527 ft 92 kts 330°
2026-04-12 16:10 53.09818 -6.04676 719 ft 87 kts 354°
2026-04-12 16:10 53.10094 -6.04010 754 ft 80 kts 122°
2026-04-12 16:10 53.09644 -6.03896 507 ft 69 kts 194°
2026-04-12 16:10 53.09156 -6.03831 318 ft 71 kts 179°
2026-04-12 16:11 53.08658 -6.03798 228 ft 75 kts 182°
2026-04-12 16:11 53.08128 -6.03735 109 ft 74 kts 186°
2026-04-12 16:11 53.07621 -6.03680 4 ft 66 kts 179°
2026-04-12 16:11 53.07159 -6.03614 78 ft 73 kts 171°
2026-04-12 16:12 53.07248 -6.03129 128 ft 78 kts 294°
2026-04-12 16:12 53.07339 -6.03651 342 ft 57 kts 302°
2026-04-12 16:12 53.07715 -6.04091 430 ft 77 kts 352°
2026-04-12 16:12 53.08307 -6.04083 590 ft 86 kts 352°
2026-04-12 16:13 53.08909 -6.04141 775 ft 87 kts 346°
2026-04-12 16:13 53.09363 -6.04244 941 ft 69 kts 89°
2026-04-12 16:13 53.08816 -6.03949 511 ft 102 kts 202°